Regional Weather Roundup
Issued by NWS State College, PA

Home | Current Version | Previous Version | Text Only | Print | Product List | Glossary On
Versions: 1 2 3 4 5 6 7 8 9 10 11 12 13 14 15 16 17 18 19 20 21 22 23 24 25 26 27 28 29 30 31 32 33 34 35 36 37 38 39 40 41 42 43 44 45 46 47 48 49 50
000
ASUS41 KCTP 270103
RWRCTP

REGIONAL WEATHER ROUNDUP
NATIONAL WEATHER SERVICE STATE COLLEGE PA
900 PM EDT TUE MAY 26 2015

Note: "fair" indicates few or no clouds below 12,000 feet with no
significant weather and/or obstructions to visibility.

* = STATION THAT DOES NOT REPORT PRECIPITATION /E.G. RAIN...SNOW...ETC/
    THUNDER OR FOG.

PAZ002>004-007>009-013>016-020>023-029>032-270200-
WESTERN PENNSYLVANIA

CITY           SKY/WX    TMP DP  RH WIND       PRES   REMARKS
ERIE           CLEAR     78  62  57 S13       29.99S
MEADVILLE      PTCLDY    74  62  66 S5        30.05F
FRANKLIN*      PTCLDY    72  61  68 S8        30.09S
NEW CASTLE     LGT RAIN  76  68  76 CALM      30.06S
BEAVER COUNTY  PTCLDY    75  64  69 S6        30.06F
BUTLER*        PTCLDY    73  63  68 S3        30.09S
PITTSBURGH INT MOCLDY    77  64  64 S3        30.07S
PITTSBURGH     PTCLDY    76  60  57 S7        30.07S
INDIANA*       PTCLDY    75  66  73 S7        30.13S
LATROBE        PTCLDY    77  64  65 CALM      30.10F
WASHINGTON CO* PTCLDY    72  64  78 CALM      30.09S
$$

PAZ004>006-010>012-017>019-024>028-033>037-041-042-045-046-049>053-270200-
CENTRAL PENNSYLVANIA

CITY           SKY/WX    TMP DP  RH WIND       PRES   REMARKS
BRADFORD       CLEAR     69  60  73 S5        30.12F
DUBOIS         CLEAR     72  63  73 SE5       30.11F
CLEARFIELD     CLEAR     73  63  70 CALM      30.12F
JOHNSTOWN      MOCLDY    71  62  73 S10       30.15F
ALTOONA        MOCLDY    74  63  68 S7        30.14S
STATE COLLEGE  NOT AVBL
WILLIAMSPORT   PTCLDY    70  68  93 CALM      30.08S FOG
SELINSGROVE    PTCLDY    79  64  60 CALM      30.10S
FT INDIANTOWN  PTCLDY    77  66  67 S6        30.12R
CAPITAL CITY   PTCLDY    78  64  61 S5        30.11R
HARRISBURG     MOCLDY    79  67  66 SE8       30.11R
YORK           PTCLDY    77  67  71 SE6       30.13R
$$

PAZ038>040-043-044-047-048-054-055-060>062-067>071-270200-
EASTERN PENNSYLVANIA

CITY           SKY/WX    TMP DP  RH WIND       PRES   REMARKS
SCRANTON       CLEAR     79  61  53 S7        30.11S
MOUNT POCONO   CLEAR     73  59  61 S8        30.18R
ALLENTOWN      PTCLDY    81  65  58 S9        30.13R
QUAKERTOWN*    MOCLDY    77  66  69 SW6       30.15S
READING        PTCLDY    79  65  62 S9        30.12R
LANCASTER      CLEAR     76  66  71 S9        30.13S
COATESVILLE    PTCLDY    75  68  78 SW3       30.17R
POTTSTOWN      MOCLDY    78  67  68 S3        30.16R
BLUE BELL      MOCLDY    79  66  65 S3        30.14R
DOYLESTOWN     PTCLDY    77  63  61 S5        30.14R
WILLOW GROVE   NOT AVBL
NORTH PHILA    PTCLDY    78  61  55 VRB7G20   30.17R
PHILADELPHIA   MOCLDY    77  64  64 S13       30.16R
$$


USA.gov is the U.S. government's official web portal to all federal, state and local government web resources and services.